Wind_Speed
4 3 3 4 4 4 4 5 6 6 6 7 7 8 9 9 9 10 10 11 11 10 10 11 12 12 12 12 11 11 10 10 10 8 7 6 7 8 7 6 5 4 4
4 3 3 4 5 5 5 5 5 6 7 7 8 8 10 10 10 11 11 11 11 11 11 11 12 12 11 10 10 9 10 10 10 8 8 7 7 7 6 6 5 4 4
4 3 3 3 4 4 5 5 5 5 6 7 8 8 10 10 9 11 12 11 11 11 11 12 11 11 11 10 10 10 10 10 9 9 8 8 8 7 6 6 5 5 4
3 3 3 3 4 4 4 5 5 6 6 7 8 8 9 10 10 10 11 11 12 12 12 11 11 11 10 10 9 9 9 9 9 8 8 8 8 7 7 7 6 5 5
3 2 2 2 3 4 5 5 5 6 6 7 9 9 9 10 10 11 11 11 12 11 11 10 11 11 10 9 9 10 10 9 9 8 8 8 8 8 7 7 6 5 5
3 2 1 2 3 4 4 4 4 6 7 7 8 8 8 9 10 11 12 12 12 11 10 10 11 11 9 9 10 10 10 10 9 8 8 8 7 7 7 7 6 5 5
3 2 1 2 3 3 4 4 4 6 7 7 7 8 9 9 10 11 12 12 11 10 10 10 10 10 10 10 10 10 10 10 9 9 8 7 7 7 7 7 6 5 5
4 3 2 3 3 3 3 3 4 5 6 7 7 8 8 9 10 11 12 11 11 10 9 9 10 10 10 10 11 11 10 10 10 10 9 8 8 7 7 7 6 5 5
5 4 4 3 3 3 3 2 4 5 5 6 7 8 8 9 10 11 11 11 10 10 9 9 9 9 10 11 11 11 11 10 10 10 9 9 8 7 7 6 5 5 5
4 4 4 3 3 3 2 3 4 5 6 7 7 8 9 9 9 9 10 10 10 10 10 10 10 11 10 10 11 11 11 10 10 10 9 9 8 7 6 6 5 5 4
5 4 4 4 3 3 2 2 4 6 6 7 8 8 8 9 9 9 11 11 11 10 11 10 10 11 10 10 11 10 10 10 9 10 10 9 8 7 7 6 5 5 4
6 5 4 3 3 3 3 3 4 6 7 7 7 8 9 9 10 10 12 12 11 10 10 11 9 10 10 10 11 11 10 9 9 9 10 9 8 7 7 6 6 5 4
6 6 4 4 4 3 4 5 5 5 6 7 7 8 9 10 10 10 11 10 10 10 10 9 9 9 9 9 10 10 10 10 10 9 9 9 8 7 6 6 5 5 4
7 6 6 5 4 4 5 6 6 5 5 7 8 9 10 11 10 10 11 10 9 9 8 7 8 8 8 8 9 9 9 9 10 9 8 8 7 6 6 6 5 4 4
8 7 6 6 5 5 6 7 7 6 7 7 7 9 10 10 10 11 10 10 9 8 8 7 7 8 8 8 8 7 8 8 8 8 7 6 6 6 6 6 6 5 5
8 7 6 7 6 7 7 7 7 7 7 8 8 9 9 10 9 8 8 9 8 8 8 7 7 7 8 8 8 7 7 7 7 5 6 6 7 7 7 6 6 6 5
8 7 7 7 7 7 7 7 7 7 7 8 8 8 9 8 8 7 7 7 7 7 7 7 6 6 6 7 7 6 7 6 6 6 6 6 6 6 7 6 7 7 6
8 7 7 7 7 7 7 7 6 7 7 7 7 7 7 7 6 6 6 6 6 6 7 6 6 6 5 6 5 5 5 6 5 6 6 6 6 6 6 7 7 7 7
8 8 7 7 7 6 6 7 7 7 6 6 6 6 6 6 6 6 5 5 5 6 6 5 5 5 4 4 5 5 5 6 5 6 6 7 7 7 7 7 7 8 8
8 7 7 7 7 6 6 6 6 7 7 6 5 6 6 6 5 5 5 4 4 4 4 4 4 4 4 4 5 5 5 5 5 6 7 7 7 8 8 8 8 9 9
7 7 6 6 6 6 6 5 5 6 6 5 5 5 5 5 5 4 4 4 3 3 3 4 4 4 5 4 4 5 6 6 6 6 6 7 7 8 8 9 9 9 10
6 6 6 5 5 5 5 5 5 5 5 5 4 3 3 3 3 4 3 3 3 2 2 2 3 3 4 4 4 5 5 5 6 6 6 6 7 7 8 9 10 10 10
6 5 5 4 4 4 4 5 5 4 4 4 3 3 3 2 2 3 3 3 3 2 2 2 2 2 3 4 4 5 6 6 6 6 6 6 7 7 8 8 9 10 10
5 5 4 4 3 3 4 4 4 4 3 3 2 2 2 2 3 2 2 3 3 3 3 3 3 3 3 3 4 4 5 5 6 6 6 7 7 8 9 9 9 10 11
4 4 4 3 3 3 3 3 3 3 2 2 1 0 1 3 3 4 3 4 4 4 4 4 4 4 5 5 5 5 5 6 6 6 7 8 8 8 9 10 11 11 11
2 3 3 3 2 2 2 2 2 2 2 1 1 1 2 3 3 3 4 4 5 5 5 5 6 6 6 7 7 6 6 6 7 7 8 9 9 9 10 11 11 12 12
Wind_Direction
113 118 131 142 155 157 152 162 168 170 163 154 159 167 166 165 165 168 170 169 165 165 167 166 164 163 166 167 171 170 172 178 173 169 167 168 171 171 173 170 157 152 151
115 118 129 140 161 163 159 161 165 168 164 157 153 160 161 160 160 165 169 170 168 165 168 166 167 168 168 170 170 169 170 175 172 171 173 175 173 173 181 183 169 158 155
121 114 121 132 148 164 168 167 171 171 164 161 153 157 157 154 155 162 167 166 166 166 166 167 168 168 170 169 166 164 169 172 171 171 173 176 175 178 188 184 174 165 157
114 108 126 147 156 164 167 172 173 172 163 164 157 154 156 156 157 166 168 164 163 163 167 168 163 164 168 168 167 163 167 172 175 171 172 176 180 182 184 178 174 170 166
100 104 119 151 167 166 166 171 172 172 167 169 167 159 155 160 161 165 168 163 161 163 169 167 162 163 166 165 168 165 167 173 178 175 170 170 175 181 181 180 178 177 168
87 94 117 161 165 173 178 174 175 168 168 169 168 163 163 166 165 165 163 160 160 161 163 166 165 166 170 169 169 167 170 172 174 175 170 172 176 176 178 179 180 178 169
82 85 127 174 173 171 173 170 167 164 166 167 165 163 160 164 165 162 160 155 156 159 165 165 171 170 171 174 175 171 172 173 173 175 174 173 175 176 177 181 180 172 168
74 83 114 147 157 158 154 154 152 158 164 166 164 161 164 164 166 161 158 155 152 156 161 167 171 165 167 172 175 170 171 173 174 176 177 174 176 176 180 183 182 174 173
69 83 105 132 143 150 154 163 158 165 164 166 161 162 163 166 163 161 161 158 154 154 159 165 167 165 168 173 175 175 174 176 180 178 179 181 178 177 178 185 188 185 182
65 78 92 99 111 119 127 140 154 157 163 160 158 161 158 160 158 157 159 159 157 154 153 159 163 164 168 172 174 177 176 179 183 184 185 184 183 183 185 189 190 188 191
64 71 87 93 93 100 115 112 143 152 152 154 156 160 158 155 157 158 159 159 155 152 152 154 154 161 165 167 174 178 178 181 186 189 187 183 187 194 191 193 192 195 201
67 70 81 92 104 107 113 115 123 137 143 144 157 162 167 166 156 149 154 153 152 153 154 152 155 160 170 168 172 176 179 186 192 198 194 192 196 198 197 196 194 201 216
69 68 73 88 97 102 114 123 123 118 124 136 146 153 158 155 151 151 154 152 155 158 154 149 153 161 170 175 169 173 181 188 194 196 194 197 197 195 196 197 200 208 222
64 68 71 85 89 93 116 126 123 128 128 130 137 144 151 153 150 150 153 153 154 154 155 152 156 158 165 168 169 177 184 187 195 196 194 195 193 193 198 204 209 221 233
63 71 75 81 90 94 108 118 119 129 133 133 139 146 149 149 146 149 151 150 152 154 157 159 163 162 167 173 179 184 187 193 199 202 202 198 197 204 212 219 220 230 239
61 68 74 81 90 95 104 115 119 125 128 130 134 137 140 141 142 146 151 155 154 153 158 162 162 169 178 180 184 187 193 198 200 205 207 208 213 220 225 230 235 240 246
66 71 78 85 89 93 101 112 116 119 118 123 130 134 141 140 139 146 153 157 161 164 166 165 166 171 180 184 188 194 195 199 213 215 213 220 228 236 236 239 247 247 252
65 73 80 88 89 93 99 109 117 118 121 124 133 136 139 143 144 145 148 150 158 165 163 170 174 176 185 193 193 202 212 220 224 222 230 239 241 244 250 253 253 253 259
63 69 75 80 88 93 96 98 114 115 121 126 132 135 139 141 140 138 142 148 158 167 171 174 181 186 201 211 209 215 225 232 233 234 244 249 247 248 256 261 258 259 265
62 67 71 77 82 90 96 96 103 113 119 123 124 128 136 137 140 141 147 151 159 174 180 187 196 201 210 221 227 232 236 245 246 246 253 255 254 256 261 266 265 263 270
59 63 69 78 86 91 96 98 101 111 120 121 124 123 130 137 139 142 149 156 163 170 184 201 211 228 237 241 248 254 256 257 255 255 256 258 259 264 267 270 270 270 272
50 55 63 77 87 89 93 99 102 105 112 123 125 131 135 142 155 161 169 176 179 181 188 202 214 230 240 246 256 264 264 260 264 267 270 271 268 269 271 270 271 272 271
44 49 57 71 83 85 87 91 95 101 104 111 124 141 147 158 171 182 192 201 199 203 206 198 210 219 240 249 252 257 261 266 265 268 269 268 265 268 268 269 272 273 275
36 42 51 60 73 79 79 84 89 99 106 109 119 145 174 187 193 197 227 221 224 221 215 227 241 255 257 256 258 267 269 273 270 268 273 275 272 270 271 273 277 277 278
35 40 45 55 64 73 82 83 83 84 90 93 82 124 226 228 224 226 234 225 224 227 229 241 253 264 266 273 274 275 271 270 273 278 277 279 277 273 273 275 276 277 280
18 26 33 49 57 64 76 70 61 61 61 56 31 346 300 264 247 245 236 233 239 245 251 256 261 266 267 271 269 271 272 271 271 275 278 278 276 279 283 283 280 278 281
Height
5874 5873 5873 5873 5872 5872 5871 5870 5870 5870 5870 5870 5871 5871 5871 5872 5872 5873 5874 5875 5876 5877 5879 5880 5882 5883 5885 5886 5888 5890 5891 5893 5894 5895 5896 5897 5898 5899 5900 5901 5902 5902 5902
5874 5873 5873 5872 5872 5872 5871 5870 5870 5870 5870 5870 5870 5871 5871 5872 5872 5873 5874 5875 5876 5877 5879 5880 5882 5884 5886 5887 5889 5890 5892 5894 5895 5896 5896 5897 5898 5899 5900 5901 5902 5902 5902
5874 5873 5873 5872 5872 5872 5871 5871 5871 5870 5870 5870 5870 5870 5871 5871 5872 5873 5874 5875 5876 5877 5878 5880 5882 5884 5886 5887 5889 5891 5892 5894 5895 5896 5897 5897 5898 5900 5901 5901 5902 5903 5903
5874 5874 5873 5872 5872 5872 5871 5871 5871 5870 5870 5870 5870 5870 5871 5872 5872 5873 5874 5875 5877 5878 5879 5881 5883 5884 5886 5887 5889 5891 5892 5894 5895 5896 5897 5898 5899 5900 5901 5902 5902 5903 5903
5874 5874 5873 5873 5872 5872 5871 5871 5871 5870 5870 5870 5870 5871 5871 5872 5873 5873 5874 5876 5877 5878 5879 5881 5882 5884 5886 5888 5889 5891 5893 5894 5896 5897 5897 5898 5899 5900 5901 5902 5903 5903 5904
5874 5874 5873 5873 5873 5872 5872 5871 5871 5870 5870 5869 5870 5871 5871 5872 5873 5874 5875 5876 5877 5879 5879 5880 5882 5884 5886 5888 5889 5891 5893 5894 5896 5897 5898 5899 5900 5901 5901 5902 5903 5904 5904
5875 5874 5874 5873 5873 5872 5872 5871 5870 5869 5870 5870 5870 5871 5871 5872 5873 5874 5875 5877 5878 5879 5880 5880 5882 5884 5886 5888 5890 5891 5893 5895 5896 5897 5899 5900 5900 5901 5902 5903 5904 5904 5905
5875 5874 5873 5873 5873 5873 5872 5871 5870 5870 5870 5871 5871 5871 5872 5873 5874 5875 5876 5877 5878 5879 5880 5881 5882 5884 5886 5888 5890 5891 5893 5895 5896 5898 5899 5900 5901 5902 5903 5903 5904 5904 5905
5875 5874 5874 5874 5873 5873 5872 5871 5871 5871 5870 5871 5871 5872 5872 5873 5874 5875 5877 5878 5879 5879 5880 5881 5882 5884 5886 5888 5889 5891 5893 5895 5896 5898 5899 5900 5901 5902 5903 5903 5904 5904 5905
5876 5875 5874 5874 5873 5873 5872 5872 5871 5871 5871 5871 5872 5873 5873 5874 5875 5876 5878 5879 5879 5880 5881 5882 5883 5885 5886 5888 5890 5891 5893 5895 5896 5898 5899 5900 5901 5902 5903 5903 5904 5904 5905
5877 5876 5875 5875 5874 5874 5873 5873 5872 5872 5872 5872 5873 5873 5874 5875 5876 5876 5878 5879 5880 5882 5882 5883 5884 5886 5887 5888 5890 5892 5893 5895 5896 5897 5899 5900 5901 5902 5903 5903 5903 5904 5905
5878 5877 5876 5875 5875 5874 5874 5873 5873 5873 5873 5873 5873 5873 5874 5875 5877 5877 5879 5880 5881 5882 5883 5884 5886 5887 5889 5890 5891 5892 5894 5895 5896 5897 5899 5900 5901 5902 5903 5903 5903 5904 5905
5879 5878 5877 5876 5875 5875 5875 5875 5874 5874 5874 5874 5873 5873 5874 5876 5878 5879 5881 5882 5882 5883 5885 5886 5887 5888 5889 5890 5892 5893 5894 5895 5896 5897 5899 5900 5901 5902 5902 5903 5903 5904 5904
5880 5879 5878 5877 5877 5876 5876 5876 5876 5875 5875 5875 5874 5874 5876 5878 5879 5880 5882 5883 5884 5885 5886 5887 5889 5890 5891 5892 5893 5894 5895 5896 5897 5897 5899 5900 5900 5901 5902 5903 5903 5903 5904
5881 5880 5879 5878 5877 5877 5877 5877 5877 5877 5877 5877 5877 5877 5878 5879 5881 5882 5883 5885 5886 5886 5888 5889 5890 5891 5892 5893 5894 5895 5895 5896 5897 5898 5898 5899 5900 5901 5902 5902 5902 5903 5903
5882 5881 5880 5880 5879 5878 5879 5879 5879 5879 5879 5879 5879 5880 5880 5881 5883 5884 5885 5886 5887 5887 5888 5889 5890 5891 5892 5893 5894 5895 5896 5896 5897 5898 5898 5899 5900 5900 5901 5901 5902 5902 5902
5884 5883 5882 5881 5881 5880 5880 5880 5880 5881 5881 5881 5881 5882 5883 5884 5885 5886 5886 5887 5888 5888 5889 5890 5891 5892 5893 5894 5895 5895 5896 5896 5897 5898 5898 5899 5899 5900 5900 5900 5901 5901 5901
5885 5884 5883 5883 5883 5882 5882 5882 5882 5882 5883 5883 5883 5884 5885 5886 5886 5887 5888 5888 5888 5889 5890 5891 5891 5892 5893 5894 5894 5895 5895 5896 5897 5897 5898 5898 5898 5899 5899 5899 5900 5900 5900
5887 5886 5885 5885 5884 5884 5884 5884 5884 5884 5884 5885 5885 5885 5886 5887 5888 5888 5889 5889 5889 5889 5890 5891 5892 5892 5893 5894 5894 5895 5895 5896 5896 5896 5897 5897 5897 5898 5898 5898 5898 5898 5898
5889 5888 5887 5886 5886 5886 5886 5885 5885 5886 5886 5886 5887 5887 5888 5888 5889 5889 5890 5890 5890 5890 5891 5891 5892 5893 5893 5894 5894 5894 5895 5895 5895 5896 5896 5896 5896 5896 5896 5896 5896 5896 5896
5890 5889 5888 5888 5887 5887 5887 5887 5887 5887 5888 5888 5888 5888 5889 5889 5889 5890 5890 5890 5891 5891 5891 5892 5892 5892 5893 5893 5894 5894 5894 5894 5894 5894 5895 5895 5895 5895 5895 5895 5894 5894 5894
5892 5891 5890 5889 5889 5889 5889 5889 5889 5889 5889 5889 5889 5889 5889 5890 5890 5890 5891 5891 5891 5891 5892 5892 5892 5892 5892 5892 5893 5893 5893 5894 5893 5893 5893 5893 5893 5893 5893 5893 5893 5892 5892
5893 5892 5891 5891 5890 5890 5890 5890 5890 5890 5890 5890 5890 5890 5890 5890 5890 5891 5891 5891 5891 5891 5891 5892 5892 5892 5892 5892 5892 5892 5892 5892 5892 5892 5892 5892 5891 5891 5891 5891 5891 5890 5890
5895 5894 5893 5892 5891 5891 5891 5891 5891 5891 5891 5891 5890 5890 5891 5890 5890 5891 5891 5891 5891 5891 5891 5891 5891 5891 5891 5891 5891 5891 5891 5891 5891 5891 5891 5890 5889 5889 5889 5889 5888 5888 5887
5896 5895 5894 5893 5892 5892 5892 5892 5892 5892 5891 5891 5891 5891 5891 5890 5890 5890 5890 5890 5890 5891 5891 5891 5891 5890 5890 5890 5890 5890 5890 5890 5890 5889 5889 5888 5888 5887 5887 5887 5886 5885 5885
5897 5896 5895 5894 5894 5893 5893 5893 5892 5892 5892 5891 5891 5891 5890 5890 5890 5889 5889 5889 5890 5890 5890 5890 5890 5889 5889 5889 5889 5889 5888 5888 5888 5888 5887 5886 5886 5885 5885 5884 5883 5883 5882